Home   Weather   Mendrisio   Past weeks

Flag for Switzerland Past Weather in Mendrisio, Ticino, Switzerland — Yesterday and Last 2 Weeks

Now
82 °F

Warm.


Feels Like: 84 °F
Forecast: 56 / 68 °F
Wind: 1 mph from East

Location: Stabio

Current Time: Aug 18, 2017 at 2:50:40 pm

Latest Report: Aug 18, 2017 at 1:00 pm


Visibility: N/A

Pressure: 30.03 "Hg

Humidity: 56%

Dew Point: 65 °F

Location of MendrisioLocation

Past Weather in Mendrisio — Graph

°F

Mendrisio Temperature Yesterday

Maximum temperature yesterday: 85 °F (at 3:00 pm)
Minimum temperature yesterday: 64 °F (at 6:00 am)
Average temperature yesterday: 73 °F

High & Low Weather Summary for the Past Weeks

 TemperatureHumidityPressure
High93 °F (Aug 5, 5:00 pm)98% (Aug 11, 3:00 am)30.20 "Hg (Aug 11, 3:00 am)
Low51 °F (Aug 12, 5:00 am)30% (Aug 7, 12:00 am)29.80 "Hg (Aug 5, 6:00 pm)
Average71 °F73%29.99 "Hg
* Reported Aug 3 1:00 pm — Aug 18 1:00 pm, Mendrisio. Weather by CustomWeather, © 2017

Note: Actual official high and low records may vary slightly from our data, if they occured in-between our weather recording intervals... More about our weather records

Advertising

Mendrisio Weather History for the Previous 24 Hours

Scroll right to see more
 ConditionsComfort  
Time TempWeatherWind HumidityBarometerVisibility
1:00 pm
Fri, Aug 18
82 °FWarm.1 mph56%30.03 "HgN/A
12:00 pm80 °FWarm.1 mph60%30.04 "HgN/A
11:00 am77 °FWarm.2 mph69%30.06 "HgN/A
10:00 am75 °FMild.3 mph72%30.07 "HgN/A
9:00 am73 °FMild.2 mph79%30.07 "HgN/A
8:00 am68 °FMild.1 mph92%30.07 "HgN/A
7:00 am66 °FMild.1 mph95%30.08 "HgN/A
6:00 am65 °FMild.1 mph94%30.08 "HgN/A
5:00 am65 °FMild.1 mph92%30.07 "HgN/A
4:00 am65 °FMild.1 mph93%30.07 "HgN/A
3:00 am66 °FMild.1 mph94%30.07 "HgN/A
2:00 am66 °FMild.2 mph94%30.08 "HgN/A
1:00 am66 °FMild.1 mph94%30.08 "HgN/A
12:00 am67 °FMild.1 mph91%30.08 "HgN/A
11:00 pm
Thu, Aug 17
68 °FMild.1 mph91%30.07 "HgN/A
10:00 pm69 °FMild.2 mph87%30.06 "HgN/A
9:00 pm71 °FMild.1 mph86%30.04 "HgN/A
8:00 pm74 °FMild.1 mph78%30.03 "HgN/A
7:00 pm81 °FWarm.1 mph67%30.01 "HgN/A
6:00 pm84 °FWarm.2 mph47%30.00 "HgN/A
5:00 pm84 °FWarm.2 mph56%30.01 "HgN/A
4:00 pm83 °FWarm.3 mph51%30.02 "HgN/A
3:00 pm85 °FWarm.2 mph52%30.03 "HgN/A
2:00 pm84 °FWarm.3 mph57%30.05 "HgN/A
Weather by CustomWeather, © 2017

See weather overviewHow to use our weather pages